Bookmark and Share
Track history (hours):
 

BBC Elbe

Last reported at 2014-Apr-24 11:23 UTC. Time now 2014-Apr-24 11:38 UTC.
Position N 22°10' E 114°08'.

Length 143 m; draft 6.6 m.

Type: Cargo ship. MMSI: 218710000.

NotesDate/timePositionNaut miles runAvg speedWind from/ knotsBaromVisibWave heightAir tempDewpointWater temp
2014-Apr-24 11:23N 22°10' E 114°08'0 0.0
2014-Apr-24 10:30N 22°10' E 114°08'0 0.0
2014-Apr-24 09:33N 22°10' E 114°08'0 0.0
2014-Apr-24 08:32N 22°10' E 114°08'0 0.0
2014-Apr-24 07:33N 22°10' E 114°08'0 0.0
2014-Apr-24 06:10N 22°10' E 114°08'0 0.0
2014-Apr-24 05:26N 22°10' E 114°08'0 0.0
2014-Apr-24 04:31N 22°10' E 114°08'0 0.0
2014-Apr-24 03:33N 22°10' E 114°08'0 0.0
2014-Apr-24 02:33N 22°10' E 114°08'0 0.0
2014-Apr-24 00:33N 22°10' E 114°08'0 0.0
2014-Apr-23 23:28N 22°10' E 114°08'0 0.0
2014-Apr-23 22:17N 22°10' E 114°08'0 0.0
2014-Apr-23 21:24N 22°10' E 114°08'0 0.0
2014-Apr-23 20:33N 22°10' E 114°08'0 0.1
2014-Apr-23 19:30N 22°10' E 114°08'22713.1
2014-Apr-23 02:10N 23°35' E 117°56'3114.8
2014-Apr-23 00:05N 23°55' E 118°22'  
2014-Apr-17 16:03N 34°52' E 120°23'50 1.5
2014-Apr-16 06:11N 34°45' E 119°23'0 0.0
2014-Apr-16 05:23N 34°45' E 119°23'0 0.0
2014-Apr-16 04:29N 34°45' E 119°23'0 0.0
2014-Apr-16 03:32N 34°45' E 119°23'0 0.0
2014-Apr-16 02:29N 34°45' E 119°23'0 0.0
2014-Apr-16 01:29N 34°45' E 119°23'0 0.2
2014-Apr-16 00:33N 34°45' E 119°23'9 8.9
2014-Apr-15 23:33N 34°46' E 119°34'8 7.6
2014-Apr-15 22:33N 34°51' E 119°42'1 1.1
2014-Apr-15 21:33N 34°52' E 119°42'0 0.1
2014-Apr-15 20:30N 34°52' E 119°42'0 0.0
2014-Apr-15 19:33N 34°52' E 119°42'0 0.0
2014-Apr-15 18:33N 34°52' E 119°42'0 0.1
2014-Apr-15 17:33N 34°52' E 119°42'0 0.0
2014-Apr-15 16:30N 34°52' E 119°42'0 0.1
2014-Apr-15 15:30N 34°52' E 119°42'0 0.0
2014-Apr-15 14:33N 34°52' E 119°42'0 0.0
2014-Apr-15 12:34N 34°52' E 119°42'0 0.0
2014-Apr-15 11:34N 34°52' E 119°42'0 0.1
2014-Apr-15 10:33N 34°52' E 119°42'0 0.1
2014-Apr-15 09:34N 34°52' E 119°42'0 0.0
2014-Apr-15 08:33N 34°52' E 119°42'0 0.0
2014-Apr-15 07:34N 34°52' E 119°42'1 0.9
2014-Apr-15 06:34N 34°52' E 119°43'1211.9
2014-Apr-15 05:34N 34°57' E 119°56'  

Dump ship's entire track history

sailing weather and tide predictions

BBC Elbe — DFGX — position and weather